Weather History for KTWF - June, 2013

Change the Weather History Date:

Thursday, June 27, 2013

  Actual Average Record
Temperature  
Mean Temperature 77 °F -  
Max Temperature 95 °F 84 °F 102 °F (2015)
Min Temperature 58 °F 53 °F 38 °F (1980)
Degree Days  
Heating Degree Days 0 1  
Month to date heating degree days 55 85  
Since 1 June heating degree days 55 85  
Since 1 July heating degree days 5737 6169  
Cooling Degree Days 12 5  
Month to date cooling degree days 121 72  
Year to date cooling degree days 146 94  
Since 1 June cooling degree days 121 72  
Growing Degree Days 26 (Base 50)    
Moisture  
Dew Point 50 °F    
Average Humidity 43    
Maximum Humidity 67    
Minimum Humidity 19    
Precipitation  
Precipitation 0.00 in 0.02 in 0.09 in (1991)
Month to date precipitation 0.18 0.88  
Year to date precipitation 3.03 6.21  
Sea Level Pressure  
Sea Level Pressure 30.03 in    
Wind  
Wind Speed 7 mph (WSW)    
Max Wind Speed 14 mph    
Max Gust Speed 20 mph    
Visibility 10 miles    
Events      
T = Trace of Precipitation, MM = Missing Value Source: NWS Daily Summary

Daily Weather History Graph

Daily Weather History Graph

Search for Another Location

Airport or City:

Trip Planner

Search our weather history database for the weather conditions in past years. The results will help you decide how hot, cold, wet, or windy it might be!

Date:

Astronomy

Jun. 27, 2013 Rise Set
Actual Time 6:02 AM MDT 9:19 PM MDT
Civil Twilight 5:27 AM MDT 9:54 PM MDT
Nautical Twilight 4:42 AM MDT 10:39 PM MDT
Astronomical Twilight 3:47 AM MDT 11:33 PM MDT
Moon No Moon Rise 11:15 AM MDT (6/27)
Length of Visible Light 16h 26m
Length of Day
15h 16m
Waning Gibbous, 76% of the Moon is Illuminated
Jun 27
Waning Gibbous
Jun 29
Last Quarter
Jul 8
New
Jul 15
First Quarter
Jul 22
Full

Hourly Weather History & Observations

Time (MDT) Temp. Heat Index Dew Point Humidity Pressure Visibility Wind Dir Wind Speed Gust Speed Precip Events Conditions
12:53 AM 62.1 °F - 52.0 °F 70% 29.98 in 10.0 mi South 3.5 mph - N/A   Clear
1:53 AM 64.9 °F - 48.9 °F 56% 29.98 in 10.0 mi South 10.4 mph - N/A   Clear
2:53 AM 64.0 °F - 48.9 °F 58% 29.99 in 10.0 mi South 10.4 mph - N/A   Clear
3:53 AM 64.9 °F - 48.9 °F 56% 29.99 in 10.0 mi SSW 6.9 mph - N/A   Clear
4:53 AM 63.0 °F - 48.9 °F 60% 30.01 in 10.0 mi SSW 9.2 mph - N/A   Clear
5:53 AM 59.0 °F - 48.9 °F 69% 30.04 in 10.0 mi SSW 9.2 mph - N/A   Clear
6:53 AM 61.0 °F - 48.9 °F 64% 30.06 in 10.0 mi South 6.9 mph - N/A   Clear
7:53 AM 70.0 °F - 50.0 °F 49% 30.07 in 10.0 mi SSW 5.8 mph - N/A   Clear
8:53 AM 73.9 °F - 50.0 °F 43% 30.08 in 10.0 mi WSW 6.9 mph - N/A   Clear
9:53 AM 75.0 °F - 53.1 °F 46% 30.11 in 10.0 mi NW 4.6 mph - N/A   Clear
10:53 AM 79.0 °F - 55.0 °F 44% 30.09 in 10.0 mi Variable 3.5 mph - N/A   Clear
11:53 AM 82.9 °F 81.9 °F 54.0 °F 37% 30.09 in 10.0 mi Variable 5.8 mph - N/A   Clear
12:53 PM 84.9 °F 83.6 °F 55.0 °F 36% 30.07 in 10.0 mi NE 6.9 mph - N/A   Clear
1:53 PM 89.1 °F 86.7 °F 53.1 °F 29% 30.05 in 10.0 mi North 6.9 mph - N/A   Clear
2:53 PM 91.0 °F 88.9 °F 55.0 °F 29% 30.03 in 10.0 mi NNW 10.4 mph - N/A   Clear
3:53 PM 93.9 °F - 44.1 °F 18% 30.01 in 10.0 mi NW 10.4 mph - N/A   Clear
4:53 PM 93.9 °F - 46.0 °F 19% 30.00 in 10.0 mi NW 9.2 mph - N/A   Clear
5:53 PM 93.9 °F - 48.9 °F 21% 30.00 in 10.0 mi WNW 8.1 mph - N/A   Clear
6:53 PM 93.9 °F - 45.0 °F 18% 29.99 in 10.0 mi NW 9.2 mph - N/A   Clear
7:53 PM 91.9 °F - 45.0 °F 20% 29.98 in 10.0 mi NW 4.6 mph - N/A   Clear
8:53 PM 84.9 °F - 48.0 °F 28% 29.98 in 10.0 mi Calm Calm - N/A   Clear
9:53 PM 70.0 °F - 55.9 °F 61% 30.02 in 10.0 mi Calm Calm - N/A   Clear
10:53 PM 68.0 °F - 54.0 °F 61% 30.03 in 10.0 mi SSW 3.5 mph - N/A   Clear
11:53 PM 73.0 °F - 46.0 °F 38% 30.03 in 10.0 mi SW 8.1 mph - N/A   Clear